Weather History for Appleton, MN

Change the Weather History Date:

Wednesday, January 1, 2014

  Actual Average Record
Temperature  
Mean Temperature -5 °F -  
Max Temperature 1 °F 20 °F 44 °F (1998)
Min Temperature -11 °F 5 °F -20 °F (2001)
Degree Days  
Heating Degree Days 70    
Moisture  
Dew Point -12 °F    
Average Humidity 65    
Maximum Humidity 84    
Minimum Humidity 51    
Precipitation  
Precipitation 0.00 in - - ()
Sea Level Pressure  
Sea Level Pressure 30.42 in    
Wind  
Wind Speed 4 mph (NE)    
Max Wind Speed 7 mph    
Max Gust Speed -    
Visibility 10 miles    
Events      
Averages and records for this station are not official NWS values.
T = Trace of Precipitation, MM = Missing Value Source: NWS Daily Summary

Daily Weather History Graph

Daily Weather History Graph

Search for Another Location

Airport:

Trip Planner

Search our weather history database for the weather conditions in past years. The results will help you decide how hot, cold, wet, or windy it might be!

Date:

Astronomy

Jan. 01, 2014 Rise Set
Actual Time 8:03 AM CST 4:52 PM CST
Civil Twilight 7:29 AM CST 5:26 PM CST
Nautical Twilight 6:52 AM CST 6:03 PM CST
Astronomical Twilight 6:16 AM CST 6:39 PM CST
Moon 7:51 AM CST (1/1) 5:42 PM CST (1/1)
Length of Visible Light 9h 56m
Length of Day
8h 49m
New Moon, 0% of the Moon is Illuminated
Jan 1
New Moon
Jan 7
First Quarter
Jan 15
Full
Jan 23
Last Quarter
Jan 30
New

Hourly Weather History & Observations

Time (CST) Temp. Windchill Dew Point Humidity Pressure Visibility Wind Dir Wind Speed Gust Speed Precip Events Conditions
12:14 AM -7.6 °F -18.8 °F -14.8 °F 71% 30.39 in 10.0 mi ENE 4.6 mph - N/A   Overcast
12:34 AM -7.6 °F -16.5 °F -14.8 °F 71% 30.39 in 10.0 mi NE 3.5 mph - N/A   Overcast
12:54 AM -7.6 °F -16.5 °F -13.0 °F 77% 30.38 in 10.0 mi NNE 3.5 mph - N/A   Overcast
1:13 AM -5.8 °F -14.5 °F -14.8 °F 65% 30.38 in 10.0 mi NE 3.5 mph - N/A   Overcast
1:33 AM -5.8 °F -14.5 °F -14.8 °F 65% 30.37 in 10.0 mi NE 3.5 mph - N/A   Overcast
1:54 AM -5.8 °F -16.7 °F -13.0 °F 71% 30.38 in 10.0 mi NE 4.6 mph - N/A   Overcast
2:13 AM -5.8 °F -16.7 °F -13.0 °F 71% 30.38 in 10.0 mi ENE 4.6 mph - N/A   Overcast
2:33 AM -5.8 °F -19.9 °F -13.0 °F 71% 30.38 in 10.0 mi East 6.9 mph - N/A   Overcast
2:53 AM -5.8 °F -14.5 °F -13.0 °F 71% 30.38 in 10.0 mi ENE 3.5 mph - N/A   Overcast
3:13 AM -5.8 °F -16.7 °F -13.0 °F 71% 30.38 in 10.0 mi ENE 4.6 mph - N/A   Overcast
3:33 AM -4.0 °F -14.6 °F -13.0 °F 65% 30.38 in 10.0 mi East 4.6 mph - N/A   Overcast
3:53 AM -4.0 °F -12.4 °F -13.0 °F 65% 30.37 in 10.0 mi ESE 3.5 mph - N/A   Overcast
4:13 AM -4.0 °F -12.4 °F -13.0 °F 65% 30.37 in 10.0 mi East 3.5 mph - N/A   Overcast
4:33 AM -4.0 °F -14.6 °F -13.0 °F 65% 30.38 in 10.0 mi NE 4.6 mph - N/A   Overcast
4:53 AM -4.0 °F -14.6 °F -14.8 °F 60% 30.38 in 10.0 mi East 4.6 mph - N/A   Overcast
5:13 AM -4.0 °F -14.6 °F -13.0 °F 65% 30.38 in 10.0 mi ENE 4.6 mph - N/A   Overcast
5:33 AM -4.0 °F -12.4 °F -13.0 °F 65% 30.38 in 10.0 mi ENE 3.5 mph - N/A   Overcast
5:53 AM -4.0 °F -14.6 °F -14.8 °F 60% 30.39 in 10.0 mi East 4.6 mph - N/A   Overcast
6:13 AM -4.0 °F -14.6 °F -14.8 °F 60% 30.39 in 10.0 mi East 4.6 mph - N/A   Overcast
6:33 AM -4.0 °F -14.6 °F -14.8 °F 60% 30.39 in 10.0 mi East 4.6 mph - N/A   Overcast
6:54 AM -4.0 °F -14.6 °F -13.0 °F 65% 30.41 in 10.0 mi ENE 4.6 mph - N/A   Overcast
7:13 AM -4.0 °F -12.4 °F -14.8 °F 60% 30.42 in 10.0 mi ENE 3.5 mph - N/A   Overcast
7:33 AM -4.0 °F -12.4 °F -14.8 °F 60% 30.42 in 10.0 mi East 3.5 mph - N/A   Overcast
7:53 AM -4.0 °F -12.4 °F -14.8 °F 60% 30.42 in 10.0 mi East 3.5 mph - N/A   Overcast
8:13 AM -4.0 °F -12.4 °F -13.0 °F 65% 30.44 in 10.0 mi East 3.5 mph - N/A   Overcast
8:33 AM -4.0 °F -12.4 °F -13.0 °F 65% 30.45 in 10.0 mi ENE 3.5 mph - N/A   Overcast
8:53 AM -2.2 °F -12.5 °F -13.0 °F 60% 30.44 in 10.0 mi ENE 4.6 mph - N/A   Overcast
9:13 AM -2.2 °F -10.4 °F -13.0 °F 60% 30.45 in 10.0 mi East 3.5 mph - N/A   Overcast
9:34 AM -2.2 °F -10.4 °F -13.0 °F 60% 30.45 in 10.0 mi ENE 3.5 mph - N/A   Overcast
9:53 AM -2.2 °F - -13.0 °F 60% 30.46 in 10.0 mi Calm Calm - N/A   Overcast
10:13 AM -2.2 °F -12.5 °F -13.0 °F 60% 30.46 in 10.0 mi East 4.6 mph - N/A   Overcast
10:33 AM -2.2 °F -12.5 °F -13.0 °F 60% 30.46 in 10.0 mi East 4.6 mph - N/A   Overcast
10:53 AM -2.2 °F -10.4 °F -13.0 °F 60% 30.47 in 10.0 mi East 3.5 mph - N/A   Overcast
11:13 AM -0.4 °F - -13.0 °F 55% 30.46 in 10.0 mi Calm Calm - N/A   Mostly Cloudy
11:34 AM -0.4 °F - -13.0 °F 55% 30.46 in 10.0 mi Calm Calm - N/A   Overcast
11:53 AM -0.4 °F - -11.2 °F 60% 30.44 in 10.0 mi Calm Calm - N/A   Overcast
12:13 PM -0.4 °F -8.3 °F -11.2 °F 60% 30.43 in 10.0 mi East 3.5 mph - N/A   Overcast
12:33 PM -0.4 °F - -14.8 °F 51% 30.43 in 10.0 mi Calm Calm - N/A   Overcast
12:53 PM 1.4 °F - -11.2 °F 56% 30.43 in 10.0 mi Calm Calm - N/A   Overcast
1:13 PM 1.4 °F - -13.0 °F 51% 30.43 in 10.0 mi Calm Calm - N/A   Overcast
1:34 PM -0.4 °F -8.3 °F -11.2 °F 60% 30.42 in 10.0 mi NNE 3.5 mph - N/A   Overcast
1:53 PM -0.4 °F -8.3 °F -11.2 °F 60% 30.43 in 10.0 mi North 3.5 mph - N/A   Overcast
2:13 PM 1.4 °F -8.3 °F -11.2 °F 56% 30.42 in 10.0 mi North 4.6 mph - N/A   Overcast
2:33 PM 1.4 °F -6.2 °F -11.2 °F 56% 30.41 in 10.0 mi NNE 3.5 mph - N/A   Overcast
2:53 PM 1.4 °F -6.2 °F -11.2 °F 56% 30.41 in 10.0 mi NE 3.5 mph - N/A   Overcast
3:13 PM -0.4 °F -8.3 °F -9.4 °F 66% 30.41 in 10.0 mi NE 3.5 mph - N/A   Overcast
3:33 PM -0.4 °F -8.3 °F -11.2 °F 60% 30.42 in 10.0 mi NNE 3.5 mph - N/A   Overcast
3:53 PM -0.4 °F -8.3 °F -9.4 °F 66% 30.42 in 10.0 mi NNE 3.5 mph - N/A   Overcast
4:13 PM -0.4 °F -10.4 °F -9.4 °F 66% 30.43 in 10.0 mi NNE 4.6 mph - N/A   Overcast
4:33 PM -0.4 °F -10.4 °F -9.4 °F 66% 30.43 in 10.0 mi NNE 4.6 mph - N/A   Overcast
4:53 PM -0.4 °F -8.3 °F -9.4 °F 66% 30.43 in 10.0 mi NE 3.5 mph - N/A   Overcast
5:13 PM -0.4 °F -8.3 °F -9.4 °F 66% 30.44 in 10.0 mi NNE 3.5 mph - N/A   Overcast
5:33 PM -0.4 °F -10.4 °F -9.4 °F 66% 30.45 in 10.0 mi NNE 4.6 mph - N/A   Overcast
5:53 PM -0.4 °F -8.3 °F -9.4 °F 66% 30.45 in 10.0 mi North 3.5 mph - N/A   Overcast
6:14 PM -0.4 °F -10.4 °F -9.4 °F 66% 30.45 in 10.0 mi North 4.6 mph - N/A   Overcast
6:33 PM -0.4 °F -10.4 °F -9.4 °F 66% 30.45 in 10.0 mi North 4.6 mph - N/A   Overcast
6:53 PM -0.4 °F -10.4 °F -9.4 °F 66% 30.45 in 10.0 mi North 4.6 mph - N/A   Overcast
7:13 PM -0.4 °F -8.3 °F -7.6 °F 72% 30.46 in 10.0 mi North 3.5 mph - N/A   Overcast
7:33 PM -0.4 °F -10.4 °F -9.4 °F 66% 30.45 in 10.0 mi NNE 4.6 mph - N/A   Overcast
7:53 PM -0.4 °F -8.3 °F -7.6 °F 72% 30.45 in 10.0 mi North 3.5 mph - N/A   Overcast
8:13 PM -0.4 °F - -7.6 °F 72% 30.45 in 10.0 mi Calm Calm - N/A   Overcast
8:33 PM -0.4 °F - -7.6 °F 72% 30.45 in 10.0 mi Calm Calm - N/A   Overcast
8:54 PM -0.4 °F - -7.6 °F 72% 30.44 in 10.0 mi Calm Calm - N/A   Overcast
9:13 PM -0.4 °F - -7.6 °F 72% 30.43 in 10.0 mi Calm Calm - N/A   Overcast
9:34 PM -0.4 °F -8.3 °F -7.6 °F 72% 30.43 in 10.0 mi NNW 3.5 mph - N/A   Overcast
9:54 PM -2.2 °F -10.4 °F -7.6 °F 78% 30.44 in 10.0 mi NNW 3.5 mph - N/A   Overcast
10:13 PM -2.2 °F -12.5 °F -7.6 °F 78% 30.44 in 10.0 mi NNW 4.6 mph - N/A   Mostly Cloudy
10:34 PM -2.2 °F -12.5 °F -9.4 °F 71% 30.44 in 10.0 mi NNW 4.6 mph - N/A   Scattered Clouds
10:53 PM -5.8 °F -16.7 °F -9.4 °F 84% 30.44 in 10.0 mi NNW 4.6 mph - N/A   Clear
11:13 PM -7.6 °F - -13.0 °F 77% 30.44 in 10.0 mi Calm Calm - N/A   Clear
11:33 PM -11.2 °F -20.6 °F -16.6 °F 77% 30.44 in 10.0 mi NNW 3.5 mph - N/A   Clear
11:53 PM -9.4 °F -18.6 °F -14.8 °F 77% 30.44 in 10.0 mi NW 3.5 mph - N/A   Clear